Вернуться в каталог

STARLINK-4278

АктивенСвязьVLEO
NORAD 53182·PAYLOAD·🇺🇸 United States

Запущен Jul 17, 2022 с Cape Canaveral Space Force Station

Loading…

Ближайшие Пролёты (ближайшие 24 часа)

TLE

СвежийSource: CelesTrak SupGP

Эпоха: Sep 14, 2026, 21:47 UTC

1 53182C 22083BC  26257.90812500 -.00028440  00000+0 -81351-3 0  2578
2 53182  53.1594 355.5559 0001178  81.4448  39.5593 15.35419835    10

Отслеживайте STARLINK-4278 в реальном времени с AllMySat

Download on the App Store